Location: Medlow Airstrip Trail, Medlow Bath NSW 2780, Australia
(33.6682°S, 150.3233°E)
Time: 05:04:24
(UTC+11:00)

Explorer 11/Cluster Stage 4 - Visible Passes

Search period start: 20 October 2019 00:00
Search period end: 30 October 2019 00:00
Orbit: 467 x 1259 km, 28.8° (Epoch: 18 October)

Date Brightness Start Highest point End Pass type
(mag) Time Alt. Az. Time Alt. Az. Time Alt. Az.
20 Oct 8.3 20:23:07 10° NNW 20:29:56 30° NNE 20:33:29 22° ENE visible
20 Oct 8.4 22:10:51 10° WNW 22:15:40 36° NW 22:15:40 36° NW visible
21 Oct 8.2 20:12:04 10° NW 20:19:00 34° NNE 20:23:59 18° ENE visible
21 Oct 7.9 21:59:56 10° WNW 22:06:10 48° NNW 22:06:10 48° NNW visible
22 Oct 8.1 20:01:05 10° NW 20:08:04 37° NNE 20:14:21 14° E visible
22 Oct 7.6 21:49:04 10° WNW 21:56:32 57° N 21:56:32 57° N visible
22 Oct 9.7 23:38:13 10° W 23:38:42 12° W 23:38:42 12° W visible
23 Oct 8.0 19:50:10 10° NW 19:57:09 40° NNE 20:04:35 10° E visible
23 Oct 7.5 21:38:14 10° WNW 21:46:12 60° N 21:46:45 59° NNE visible
23 Oct 9.4 23:27:21 10° W 23:28:54 17° W 23:28:54 17° W visible
24 Oct 7.9 19:39:19 10° NW 19:46:15 43° NNE 19:53:55 10° E visible
24 Oct 7.5 21:27:26 10° WNW 21:35:19 62° N 21:36:51 54° NE visible
24 Oct 9.2 23:16:32 10° W 23:19:00 21° W 23:19:00 21° W visible
25 Oct 7.5 21:16:41 10° WNW 21:24:27 62° N 21:26:51 46° ENE visible
25 Oct 8.9 23:05:44 10° W 23:08:59 26° WNW 23:08:59 26° WNW visible
26 Oct 7.5 21:05:57 10° WNW 21:13:35 63° N 21:16:45 39° ENE visible
26 Oct 8.7 22:54:57 10° W 22:58:53 30° WNW 22:58:53 30° WNW visible
27 Oct 7.5 20:55:16 10° W 21:02:43 62° N 21:06:36 33° ENE visible
27 Oct 8.5 22:44:13 10° W 22:48:44 33° WNW 22:48:44 33° WNW visible
28 Oct 7.5 20:44:36 10° W 20:51:52 61° N 20:56:25 28° ENE visible
28 Oct 8.4 22:33:31 10° W 22:38:31 36° WNW 22:38:31 36° WNW visible
29 Oct 7.6 20:33:58 10° W 20:41:02 59° N 20:46:10 23° ENE visible
29 Oct 8.3 22:22:51 10° W 22:28:18 36° NW 22:28:18 36° NW visible
